Location: Miss�
(46.9484°N, 0.1922°W)
Time: 08:10:38
(UTC+00:00)

USA 308 - Pass Details

Date: 02 March 2021
Orbit: 571 x 574 km, 54.0° (Epoch: 10 April)

Event Time Altitude Azimuth Distance (km) Brightness Sun altitude
Rises 20:03:41 0° 290° (WNW) 2,781 7.9 -23.8°
Reaches altitude 10° 20:06:08 10° 300° (WNW) 1,881 6.5 -24.2°
Maximum altitude 20:09:59 32° 4° (N) 1,003 4.2 -24.8°
Enters shadow 20:10:03 32° 6° (N) 1,003 4.2 -24.8°
